Total_Precipitation_Accumulation
0.62 0.64 0.63 0.59 0.54 0.51 0.47 0.43 0.38 0.31 0.26 0.22 0.20 0.17 0.15 0.13 0.12 0.12 0.12 0.12 0.13 0.12 0.12 0.11 0.11 0.11 0.11 0.09 0.09 0.10 0.10 0.14 0.17 0.10 0.07 0.07 0.09 0.11 0.11 0.13 0.13 0.14 0.14
0.41 0.39 0.39 0.35 0.32 0.29 0.27 0.25 0.22 0.20 0.17 0.15 0.14 0.13 0.12 0.12 0.11 0.10 0.10 0.10 0.10 0.10 0.09 0.09 0.08 0.08 0.10 0.09 0.09 0.09 0.10 0.13 0.16 0.15 0.11 0.10 0.11 0.14 0.15 0.17 0.11 0.09 0.13
0.31 0.27 0.27 0.26 0.25 0.22 0.19 0.17 0.16 0.15 0.14 0.14 0.13 0.11 0.11 0.10 0.09 0.09 0.09 0.09 0.08 0.08 0.07 0.07 0.07 0.07 0.08 0.09 0.11 0.12 0.12 0.13 0.19 0.23 0.18 0.16 0.13 0.12 0.16 0.14 0.14 0.22 0.15
0.25 0.23 0.20 0.18 0.18 0.17 0.16 0.14 0.13 0.12 0.11 0.10 0.10 0.09 0.09 0.08 0.07 0.06 0.06 0.06 0.06 0.06 0.05 0.05 0.05 0.06 0.07 0.10 0.12 0.14 0.17 0.20 0.23 0.25 0.21 0.16 0.15 0.13 0.21 0.22 0.20 0.22 0.19
0.22 0.23 0.22 0.19 0.17 0.16 0.16 0.14 0.13 0.11 0.09 0.07 0.05 0.04 0.03 0.02 0.02 0.02 0.02 0.02 0.03 0.03 0.03 0.03 0.03 0.03 0.06 0.10 0.12 0.16 0.22 0.26 0.26 0.27 0.24 0.20 0.16 0.20 0.24 0.26 0.27 0.22 0.18
0.29 0.29 0.28 0.24 0.20 0.17 0.14 0.12 0.09 0.06 0.04 0.02 0.02 0.01 0.01 0.01 0.00 0.00 0.00 0.01 0.02 0.03 0.04 0.04 0.03 0.03 0.04 0.07 0.10 0.15 0.22 0.27 0.29 0.30 0.28 0.27 0.24 0.29 0.35 0.37 0.40 0.36 0.27
0.31 0.27 0.23 0.19 0.15 0.11 0.08 0.06 0.05 0.05 0.04 0.03 0.02 0.02 0.03 0.01 0.00 0.00 0.00 0.01 0.03 0.06 0.08 0.08 0.06 0.04 0.08 0.11 0.10 0.09 0.12 0.14 0.23 0.34 0.38 0.37 0.39 0.43 0.52 0.52 0.48 0.46 0.41
0.22 0.18 0.14 0.10 0.07 0.05 0.04 0.04 0.05 0.05 0.05 0.05 0.04 0.04 0.05 0.02 0.00 0.00 0.00 0.02 0.05 0.07 0.08 0.09 0.11 0.13 0.10 0.08 0.07 0.08 0.13 0.20 0.25 0.33 0.45 0.48 0.47 0.49 0.56 0.58 0.55 0.50 0.43
0.16 0.13 0.09 0.06 0.05 0.04 0.04 0.05 0.05 0.07 0.07 0.05 0.04 0.06 0.08 0.06 0.01 0.00 0.00 0.02 0.05 0.06 0.07 0.07 0.07 0.11 0.09 0.09 0.09 0.14 0.20 0.28 0.26 0.36 0.47 0.52 0.53 0.56 0.57 0.57 0.62 0.63 0.56
0.12 0.09 0.06 0.05 0.05 0.05 0.05 0.06 0.06 0.07 0.08 0.06 0.06 0.07 0.09 0.09 0.02 0.00 0.01 0.02 0.04 0.05 0.07 0.11 0.09 0.08 0.10 0.10 0.09 0.17 0.27 0.31 0.40 0.59 0.71 0.73 0.69 0.66 0.62 0.62 0.66 0.68 0.67
0.09 0.08 0.06 0.04 0.04 0.05 0.06 0.08 0.07 0.07 0.08 0.08 0.09 0.10 0.11 0.06 0.02 0.01 0.01 0.02 0.04 0.06 0.11 0.16 0.18 0.12 0.10 0.09 0.09 0.18 0.27 0.29 0.47 0.79 0.84 0.74 0.64 0.59 0.57 0.55 0.58 0.63 0.69
0.10 0.09 0.08 0.06 0.03 0.04 0.08 0.10 0.08 0.08 0.10 0.10 0.11 0.13 0.12 0.08 0.03 0.01 0.01 0.02 0.03 0.07 0.16 0.18 0.18 0.15 0.12 0.12 0.14 0.22 0.29 0.41 0.64 0.87 0.85 0.72 0.58 0.50 0.46 0.43 0.48 0.55 0.60
0.10 0.11 0.09 0.06 0.05 0.04 0.06 0.09 0.08 0.09 0.08 0.06 0.08 0.11 0.10 0.10 0.07 0.02 0.01 0.02 0.04 0.08 0.16 0.20 0.20 0.18 0.20 0.30 0.32 0.36 0.46 0.63 0.76 0.82 0.75 0.63 0.52 0.47 0.42 0.41 0.41 0.48 0.54
0.14 0.12 0.09 0.08 0.07 0.04 0.03 0.03 0.03 0.04 0.04 0.05 0.08 0.10 0.10 0.10 0.07 0.04 0.04 0.05 0.06 0.10 0.16 0.27 0.36 0.38 0.43 0.53 0.60 0.64 0.67 0.69 0.68 0.68 0.61 0.54 0.48 0.47 0.43 0.38 0.39 0.41 0.48
0.16 0.12 0.11 0.10 0.07 0.06 0.05 0.03 0.02 0.02 0.01 0.02 0.04 0.05 0.07 0.08 0.05 0.06 0.07 0.07 0.08 0.12 0.16 0.28 0.44 0.53 0.59 0.64 0.66 0.67 0.65 0.60 0.58 0.54 0.51 0.47 0.46 0.45 0.42 0.36 0.36 0.38 0.43
0.12 0.10 0.09 0.07 0.06 0.05 0.07 0.07 0.02 0.01 0.01 0.01 0.02 0.03 0.03 0.05 0.05 0.05 0.07 0.09 0.11 0.15 0.20 0.34 0.45 0.52 0.57 0.59 0.59 0.57 0.52 0.49 0.46 0.44 0.42 0.38 0.36 0.37 0.38 0.36 0.34 0.37 0.42
0.06 0.05 0.03 0.04 0.04 0.04 0.05 0.11 0.14 0.09 0.02 0.01 0.01 0.02 0.03 0.04 0.04 0.04 0.05 0.07 0.10 0.17 0.25 0.38 0.47 0.51 0.56 0.58 0.53 0.49 0.47 0.43 0.37 0.33 0.33 0.31 0.27 0.29 0.32 0.35 0.34 0.35 0.36
0.02 0.02 0.02 0.03 0.02 0.02 0.04 0.07 0.12 0.18 0.17 0.12 0.05 0.02 0.03 0.04 0.05 0.05 0.06 0.09 0.15 0.21 0.32 0.42 0.47 0.49 0.52 0.53 0.48 0.44 0.42 0.35 0.30 0.26 0.27 0.28 0.27 0.26 0.28 0.30 0.29 0.27 0.29
0.02 0.03 0.02 0.02 0.01 0.02 0.03 0.03 0.05 0.09 0.14 0.15 0.14 0.08 0.06 0.08 0.10 0.11 0.12 0.15 0.19 0.24 0.29 0.35 0.40 0.43 0.45 0.44 0.41 0.36 0.33 0.30 0.26 0.24 0.24 0.25 0.26 0.25 0.24 0.22 0.20 0.15 0.21
0.02 0.01 0.01 0.01 0.02 0.02 0.02 0.02 0.04 0.07 0.10 0.11 0.10 0.08 0.09 0.16 0.21 0.20 0.17 0.15 0.15 0.18 0.23 0.28 0.32 0.33 0.33 0.33 0.30 0.26 0.25 0.24 0.22 0.22 0.22 0.23 0.23 0.21 0.18 0.16 0.15 0.16 0.18
0.02 0.02 0.01 0.01 0.01 0.01 0.01 0.02 0.03 0.06 0.08 0.09 0.07 0.05 0.11 0.17 0.23 0.23 0.21 0.18 0.17 0.18 0.20 0.22 0.24 0.24 0.22 0.20 0.20 0.19 0.18 0.18 0.19 0.22 0.23 0.21 0.18 0.15 0.11 0.09 0.09 0.08 0.09
0.01 0.01 0.01 0.01 0.01 0.00 0.00 0.01 0.01 0.03 0.05 0.07 0.07 0.06 0.11 0.15 0.20 0.20 0.20 0.19 0.18 0.19 0.20 0.20 0.20 0.19 0.18 0.17 0.17 0.16 0.14 0.15 0.16 0.20 0.21 0.19 0.15 0.10 0.07 0.06 0.05 0.04 0.04
0.00 0.00 0.00 0.00 0.00 0.00 0.00 0.01 0.01 0.02 0.03 0.05 0.05 0.06 0.08 0.12 0.14 0.18 0.20 0.18 0.15 0.15 0.14 0.15 0.16 0.16 0.15 0.14 0.14 0.12 0.10 0.11 0.13 0.16 0.22 0.20 0.14 0.08 0.06 0.05 0.04 0.04 0.03
0.00 0.00 0.00 0.00 0.00 0.00 0.00 0.00 0.00 0.01 0.01 0.02 0.03 0.05 0.07 0.08 0.10 0.15 0.18 0.17 0.16 0.15 0.14 0.13 0.14 0.14 0.14 0.13 0.11 0.08 0.05 0.06 0.08 0.11 0.17 0.16 0.10 0.06 0.06 0.06 0.05 0.04 0.03
0.00 0.00 0.00 0.00 0.00 0.00 0.00 0.00 0.00 0.00 0.01 0.01 0.02 0.03 0.05 0.05 0.05 0.08 0.12 0.14 0.15 0.17 0.16 0.12 0.10 0.10 0.09 0.07 0.05 0.04 0.05 0.05 0.05 0.06 0.11 0.12 0.07 0.05 0.05 0.04 0.04 0.04 0.04
0.00 0.00 0.00 0.00 0.00 0.00 0.00 0.00 0.00 0.00 0.00 0.00 0.00 0.01 0.01 0.02 0.02 0.03 0.05 0.07 0.10 0.13 0.13 0.12 0.10 0.07 0.05 0.02 0.02 0.03 0.04 0.03 0.02 0.03 0.07 0.11 0.08 0.05 0.06 0.05 0.03 0.04 0.05